{"data":{"norad_id":66311,"epoch":"2026-09-20T01:52:37.579872Z","epoch_age_seconds":58493,"freshness":"FRESH","line1":"1 66311U 25249B   26263.07821273 -.00000081  00000+0  00000+0 0  9996","line2":"2 66311   0.0400 264.4461 0000751 232.9136 323.7594  1.00272760  3303","mean_motion":1.0027276,"eccentricity":7.51e-5,"inclination_deg":0.04,"raan_deg":264.4461,"arg_perigee_deg":232.9136,"mean_anomaly_deg":323.7594,"bstar":0,"rev_number":330,"period_min":1436.0829401724,"perigee_km":35783.155084668,"apogee_km":35789.488186355,"semimajor_km":42164.458635512,"source":"CELESTRAK","updated_at":"2026-09-20T09:00:35.346563Z"}}